EWG09CW EDDH-ENBR

Flight info

Callsign EWG09CW
Flight time 1h 18m
Altitude 36000
Route ELSOB3G/33 ELSOB Y348 OMWEG DCT BADOS DCT ATTUS DCT BADAB
Aircraft A321/M-SDE3FGHIRWY/LB1

Departure

Time 2026-04-23 17:50
Airport Hamburg Helmut Schmidt Airport (EDDH)

Arrival

Time 2026-04-23 19:08
Airport Bergen Airport, Flesland (ENBR)
Time Latitude Longitude Altitude Speed Heading
2026-04-23 17:18 53.62843 10.00213 49 ft 0 kts 62°
2026-04-23 17:28 53.62843 10.00212 49 ft 0 kts 62°
2026-04-23 17:40 53.62842 10.00209 48 ft 2 kts 62°
2026-04-23 17:41 53.62828 10.00172 42 ft 4 kts 51°
2026-04-23 17:41 53.62788 10.00125 48 ft 4 kts 349°
2026-04-23 17:41 53.62776 10.00131 48 ft 1 kts 333°
2026-04-23 17:42 53.62775 10.00132 48 ft 0 kts 333°
2026-04-23 17:44 53.62783 10.00125 48 ft 3 kts 333°
2026-04-23 17:45 53.62830 10.00084 48 ft 9 kts 332°
2026-04-23 17:45 53.62847 9.99964 48 ft 0 kts 244°
2026-04-23 17:47 53.62846 9.99963 48 ft 1 kts 244°
2026-04-23 17:48 53.62841 9.99944 47 ft 6 kts 244°
2026-04-23 17:48 53.62817 9.99820 45 ft 14 kts 279°
2026-04-23 17:48 53.62874 9.99741 45 ft 0 kts 332°
2026-04-23 17:49 53.62877 9.99738 45 ft 4 kts 332°
2026-04-23 17:49 53.63120 9.99530 46 ft 76 kts 332°
2026-04-23 17:49 53.63789 9.98943 49 ft 138 kts 334°
2026-04-23 17:49 53.64775 9.98092 276 ft 169 kts 329°
2026-04-23 17:50 53.65816 9.97247 1168 ft 162 kts 333°
2026-04-23 17:50 53.67712 9.95631 2869 ft 155 kts 333°
2026-04-23 17:50 53.68740 9.94738 3273 ft 176 kts 333°
2026-04-23 17:51 53.69890 9.93742 3630 ft 193 kts 333°
2026-04-23 17:51 53.70986 9.92454 4221 ft 199 kts 311°
2026-04-23 17:51 53.71217 9.87510 4966 ft 253 kts 259°
2026-04-23 17:52 53.70662 9.84600 5003 ft 265 kts 257°
2026-04-23 17:52 53.69419 9.78682 5010 ft 268 kts 256°
2026-04-23 17:52 53.68796 9.75700 5380 ft 270 kts 256°
2026-04-23 17:53 53.67574 9.69669 6850 ft 275 kts 257°
2026-04-23 17:53 53.66970 9.66598 7509 ft 277 kts 259°
2026-04-23 17:53 53.66788 9.63425 8139 ft 270 kts 283°
2026-04-23 17:54 53.67364 9.60465 8778 ft 265 kts 304°
2026-04-23 17:54 53.68568 9.58160 9421 ft 263 kts 326°
2026-04-23 17:54 53.71995 9.55722 10343 ft 283 kts 340°
2026-04-23 17:55 53.75934 9.53208 10747 ft 317 kts 339°
2026-04-23 17:55 53.78010 9.51860 11261 ft 322 kts 339°
2026-04-23 17:55 53.80112 9.50500 11818 ft 325 kts 339°
2026-04-23 17:56 53.82209 9.49149 12385 ft 328 kts 340°
2026-04-23 17:56 53.86528 9.46383 13520 ft 335 kts 340°
2026-04-23 17:56 53.88719 9.44984 14079 ft 338 kts 340°
2026-04-23 17:57 53.90937 9.43560 14573 ft 342 kts 340°
2026-04-23 17:57 53.93172 9.42122 15072 ft 345 kts 340°
2026-04-23 17:57 53.97700 9.39207 16076 ft 351 kts 340°
2026-04-23 17:58 53.99991 9.37732 16573 ft 354 kts 340°
2026-04-23 17:58 54.02301 9.36242 17064 ft 357 kts 339°
2026-04-23 17:58 54.04634 9.34733 17543 ft 360 kts 339°
2026-04-23 17:58 54.06979 9.33213 18033 ft 362 kts 339°
2026-04-23 17:59 54.09345 9.31678 18508 ft 365 kts 339°
2026-04-23 17:59 54.11733 9.30129 18927 ft 368 kts 339°
2026-04-23 17:59 54.14100 9.28593 19342 ft 370 kts 339°
2026-04-23 17:59 54.16514 9.27023 19750 ft 372 kts 339°
2026-04-23 18:00 54.18940 9.25444 20161 ft 375 kts 339°
2026-04-23 18:00 54.21384 9.23847 20568 ft 377 kts 339°
2026-04-23 18:00 54.23838 9.22241 20974 ft 379 kts 339°
2026-04-23 18:00 54.26308 9.20623 21382 ft 381 kts 339°
2026-04-23 18:01 54.28793 9.18996 21769 ft 383 kts 339°
2026-04-23 18:01 54.31295 9.17358 22163 ft 386 kts 339°
2026-04-23 18:01 54.33811 9.15708 22538 ft 388 kts 338°
2026-04-23 18:01 54.36344 9.14045 22911 ft 391 kts 338°
2026-04-23 18:02 54.38891 9.12372 23284 ft 393 kts 338°
2026-04-23 18:02 54.41454 9.10686 23651 ft 395 kts 338°
2026-04-23 18:02 54.44029 9.08986 23987 ft 398 kts 338°
2026-04-23 18:02 54.46620 9.07271 24308 ft 400 kts 338°
2026-04-23 18:03 54.49193 9.05565 24619 ft 402 kts 338°
2026-04-23 18:03 54.51804 9.03834 24942 ft 403 kts 338°
2026-04-23 18:03 54.54428 9.02094 25254 ft 405 kts 338°
2026-04-23 18:03 54.57067 9.00347 25566 ft 407 kts 338°
2026-04-23 18:04 54.59714 8.98592 25872 ft 409 kts 338°
2026-04-23 18:04 54.62376 8.96826 26187 ft 411 kts 338°
2026-04-23 18:04 54.65048 8.95047 26480 ft 413 kts 338°
2026-04-23 18:04 54.67734 8.93249 26770 ft 415 kts 338°
2026-04-23 18:05 54.70434 8.91439 27059 ft 417 kts 338°
2026-04-23 18:05 54.73153 8.89614 27330 ft 419 kts 338°
2026-04-23 18:05 54.75586 8.87981 27593 ft 421 kts 338°
2026-04-23 18:05 54.78326 8.86143 27869 ft 423 kts 338°
2026-04-23 18:06 54.81076 8.84294 28140 ft 425 kts 338°
2026-04-23 18:06 54.83845 8.82426 28424 ft 427 kts 338°
2026-04-23 18:06 54.86623 8.80547 28688 ft 429 kts 338°
2026-04-23 18:06 54.89381 8.78683 28956 ft 431 kts 338°
2026-04-23 18:07 54.92197 8.76824 29206 ft 434 kts 339°
2026-04-23 18:07 54.95057 8.75081 29471 ft 436 kts 340°
2026-04-23 18:07 54.97942 8.73415 29723 ft 438 kts 341°
2026-04-23 18:07 55.00851 8.71770 29970 ft 440 kts 341°
2026-04-23 18:08 55.02781 8.70672 30130 ft 441 kts 341°
2026-04-23 18:08 55.06696 8.68421 30420 ft 444 kts 341°
2026-04-23 18:08 55.09634 8.66703 30612 ft 445 kts 340°
2026-04-23 18:08 55.12571 8.64959 30799 ft 446 kts 340°
2026-04-23 18:09 55.15514 8.63200 31005 ft 447 kts 340°
2026-04-23 18:09 55.18455 8.61434 31269 ft 446 kts 339°
2026-04-23 18:09 55.21386 8.59670 31528 ft 445 kts 340°
2026-04-23 18:09 55.24277 8.57934 31784 ft 445 kts 339°
2026-04-23 18:10 55.27201 8.56176 32033 ft 444 kts 339°
2026-04-23 18:10 55.30127 8.54421 32286 ft 444 kts 339°
2026-04-23 18:10 55.33047 8.52672 32513 ft 443 kts 339°
2026-04-23 18:10 55.35967 8.50921 32765 ft 443 kts 339°
2026-04-23 18:11 55.38879 8.49168 33009 ft 442 kts 339°
2026-04-23 18:11 55.41786 8.47412 33244 ft 442 kts 339°
2026-04-23 18:11 55.44692 8.45654 33490 ft 441 kts 339°
2026-04-23 18:11 55.47592 8.43900 33727 ft 441 kts 339°
2026-04-23 18:12 55.50493 8.42143 33964 ft 440 kts 339°
2026-04-23 18:12 55.53391 8.40381 34183 ft 440 kts 339°
2026-04-23 18:12 55.56291 8.38615 34381 ft 440 kts 339°
2026-04-23 18:12 55.59184 8.36853 34572 ft 440 kts 338°
2026-04-23 18:13 55.62079 8.35087 34766 ft 440 kts 338°
2026-04-23 18:13 55.64975 8.33320 34954 ft 440 kts 338°
2026-04-23 18:13 55.67869 8.31557 35147 ft 439 kts 338°
2026-04-23 18:13 55.70718 8.29818 35329 ft 439 kts 338°
2026-04-23 18:14 55.73610 8.28042 35535 ft 439 kts 338°
2026-04-23 18:14 55.76488 8.26266 35715 ft 439 kts 338°
2026-04-23 18:14 55.79376 8.24484 35907 ft 438 kts 338°
2026-04-23 18:14 55.82266 8.22701 36091 ft 438 kts 338°
2026-04-23 18:15 55.85151 8.20917 36233 ft 438 kts 338°
2026-04-23 18:15 55.90899 8.17353 36259 ft 437 kts 338°
2026-04-23 18:16 55.96633 8.13785 36259 ft 436 kts 338°
2026-04-23 18:16 56.02331 8.10242 36259 ft 436 kts 338°
2026-04-23 18:17 56.10924 8.04877 36256 ft 436 kts 338°
2026-04-23 18:17 56.16653 8.01284 36258 ft 436 kts 338°
2026-04-23 18:18 56.22387 7.97671 36263 ft 437 kts 337°
2026-04-23 18:18 56.28122 7.94037 36262 ft 437 kts 336°
2026-04-23 18:19 56.33861 7.90379 36266 ft 437 kts 337°
2026-04-23 18:19 56.39557 7.86759 36258 ft 437 kts 336°
2026-04-23 18:20 56.45299 7.83100 36259 ft 437 kts 336°
2026-04-23 18:20 56.51035 7.79438 36263 ft 437 kts 337°
2026-04-23 18:21 56.56767 7.75770 36259 ft 437 kts 336°
2026-04-23 18:21 56.62495 7.72073 36260 ft 436 kts 336°
2026-04-23 18:22 56.68182 7.68388 36256 ft 436 kts 336°
2026-04-23 18:22 56.73895 7.64681 36251 ft 436 kts 336°
2026-04-23 18:23 56.82460 7.59104 36250 ft 436 kts 336°
2026-04-23 18:24 56.91024 7.53513 36246 ft 436 kts 336°
2026-04-23 18:25 56.99582 7.47879 36239 ft 436 kts 336°
2026-04-23 18:25 57.05286 7.44108 36237 ft 436 kts 336°
2026-04-23 18:26 57.10986 7.40322 36240 ft 436 kts 336°
2026-04-23 18:26 57.16695 7.36528 36240 ft 436 kts 336°
2026-04-23 18:27 57.21436 7.33365 36242 ft 436 kts 335°
2026-04-23 18:27 57.28066 7.28932 36244 ft 436 kts 335°
2026-04-23 18:28 57.33776 7.25120 36248 ft 436 kts 336°
2026-04-23 18:28 57.38525 7.21932 36246 ft 436 kts 335°
2026-04-23 18:29 57.44227 7.18078 36248 ft 436 kts 335°
2026-04-23 18:29 57.49928 7.14202 36250 ft 436 kts 335°
2026-04-23 18:30 57.55636 7.10325 36250 ft 436 kts 335°
2026-04-23 18:30 57.61338 7.06431 36252 ft 437 kts 335°
2026-04-23 18:31 57.67046 7.02521 36253 ft 437 kts 335°
2026-04-23 18:31 57.72753 6.98604 35925 ft 436 kts 335°
2026-04-23 18:31 57.75557 6.96678 35676 ft 434 kts 335°
2026-04-23 18:32 57.78382 6.94737 35430 ft 432 kts 335°
2026-04-23 18:32 57.81200 6.92795 35181 ft 430 kts 335°
2026-04-23 18:32 57.84004 6.90861 34944 ft 428 kts 335°
2026-04-23 18:32 57.86800 6.88926 34700 ft 427 kts 335°
2026-04-23 18:33 57.89576 6.86999 34463 ft 425 kts 335°
2026-04-23 18:33 57.92346 6.85070 34223 ft 423 kts 335°
2026-04-23 18:33 57.95104 6.83147 33949 ft 422 kts 335°
2026-04-23 18:33 57.97850 6.81234 33674 ft 420 kts 336°
2026-04-23 18:34 58.00588 6.79323 33410 ft 418 kts 336°
2026-04-23 18:34 58.03313 6.77417 33145 ft 417 kts 336°
2026-04-23 18:34 58.06026 6.75512 32882 ft 415 kts 336°
2026-04-23 18:34 58.08728 6.73614 32618 ft 413 kts 336°
2026-04-23 18:35 58.11424 6.71717 32360 ft 412 kts 336°
2026-04-23 18:35 58.14070 6.69857 32107 ft 410 kts 336°
2026-04-23 18:35 58.16746 6.67975 31849 ft 409 kts 336°
2026-04-23 18:35 58.19405 6.66097 31606 ft 408 kts 336°
2026-04-23 18:36 58.22056 6.64221 31355 ft 406 kts 336°
2026-04-23 18:36 58.24700 6.62345 31103 ft 405 kts 336°
2026-04-23 18:36 58.27333 6.60472 30871 ft 403 kts 336°
2026-04-23 18:36 58.29958 6.58601 30633 ft 402 kts 336°
2026-04-23 18:37 58.32567 6.56739 30388 ft 400 kts 336°
2026-04-23 18:37 58.35170 6.54882 30119 ft 399 kts 336°
2026-04-23 18:37 58.37766 6.53027 29837 ft 397 kts 336°
2026-04-23 18:37 58.40352 6.51173 29567 ft 396 kts 336°
2026-04-23 18:38 58.42921 6.49333 29295 ft 394 kts 336°
2026-04-23 18:38 58.45452 6.47516 29024 ft 392 kts 336°
2026-04-23 18:38 58.48000 6.45687 28764 ft 391 kts 336°
2026-04-23 18:38 58.50536 6.43869 28493 ft 389 kts 336°
2026-04-23 18:39 58.53066 6.42050 28228 ft 387 kts 336°
2026-04-23 18:39 58.55581 6.40232 27976 ft 385 kts 335°
2026-04-23 18:39 58.58083 6.38417 27717 ft 384 kts 335°
2026-04-23 18:39 58.60576 6.36607 27466 ft 382 kts 335°
2026-04-23 18:40 58.63053 6.34806 27210 ft 380 kts 335°
2026-04-23 18:40 58.65525 6.33010 26963 ft 379 kts 335°
2026-04-23 18:40 58.67987 6.31219 26713 ft 377 kts 335°
2026-04-23 18:40 58.70432 6.29438 26469 ft 375 kts 335°
2026-04-23 18:41 58.72864 6.27662 26223 ft 374 kts 335°
2026-04-23 18:41 58.75256 6.25910 25988 ft 372 kts 335°
2026-04-23 18:41 58.77673 6.24137 25742 ft 370 kts 335°
2026-04-23 18:41 58.80077 6.22373 25512 ft 369 kts 335°
2026-04-23 18:42 58.82475 6.20617 25286 ft 367 kts 335°
2026-04-23 18:42 58.84858 6.18867 25044 ft 366 kts 335°
2026-04-23 18:42 58.87238 6.17119 24810 ft 365 kts 335°
2026-04-23 18:42 58.89608 6.15374 24583 ft 364 kts 335°
2026-04-23 18:43 58.91968 6.13630 24351 ft 362 kts 335°
2026-04-23 18:43 58.94319 6.11891 24123 ft 361 kts 335°
2026-04-23 18:43 58.96668 6.10152 23887 ft 360 kts 335°
2026-04-23 18:43 58.99003 6.08419 23623 ft 359 kts 335°
2026-04-23 18:44 59.01334 6.06683 23351 ft 357 kts 335°
2026-04-23 18:44 59.03655 6.04950 23082 ft 356 kts 335°
2026-04-23 18:44 59.05963 6.03229 22816 ft 355 kts 335°
2026-04-23 18:44 59.08328 6.01846 22550 ft 356 kts 345°
2026-04-23 18:45 59.10729 6.00935 22287 ft 355 kts 345°
2026-04-23 18:45 59.13150 6.00023 22035 ft 353 kts 346°
2026-04-23 18:45 59.15550 5.99121 21707 ft 349 kts 346°
2026-04-23 18:45 59.17930 5.98224 21452 ft 348 kts 346°
2026-04-23 18:46 59.20308 5.97320 21200 ft 347 kts 346°
2026-04-23 18:46 59.22673 5.96414 20948 ft 346 kts 346°
2026-04-23 18:46 59.25028 5.95510 20704 ft 344 kts 346°
2026-04-23 18:46 59.27373 5.94614 20457 ft 342 kts 346°
2026-04-23 18:47 59.29703 5.93723 20214 ft 341 kts 346°
2026-04-23 18:47 59.32025 5.92834 19972 ft 339 kts 346°
2026-04-23 18:47 59.34335 5.91946 19733 ft 337 kts 346°
2026-04-23 18:47 59.36631 5.91058 19497 ft 336 kts 346°
2026-04-23 18:48 59.38916 5.90175 19259 ft 334 kts 346°
2026-04-23 18:48 59.41194 5.89301 19030 ft 332 kts 346°
2026-04-23 18:48 59.43465 5.88486 18794 ft 332 kts 351°
2026-04-23 18:48 59.45763 5.88092 18557 ft 331 kts 353°
2026-04-23 18:49 59.48055 5.87720 18290 ft 329 kts 352°
2026-04-23 18:49 59.50298 5.87355 18031 ft 328 kts 352°
2026-04-23 18:49 59.52566 5.86984 17766 ft 326 kts 352°
2026-04-23 18:49 59.54815 5.86612 17512 ft 324 kts 352°
2026-04-23 18:50 59.56305 5.86364 17342 ft 323 kts 352°
2026-04-23 18:50 59.59294 5.85867 17003 ft 321 kts 352°
2026-04-23 18:50 59.61510 5.85502 16751 ft 319 kts 352°
2026-04-23 18:50 59.63715 5.85141 16503 ft 317 kts 352°
2026-04-23 18:51 59.65909 5.84787 16266 ft 313 kts 352°
2026-04-23 18:51 59.68061 5.84444 15921 ft 308 kts 352°
2026-04-23 18:51 59.70154 5.84101 15553 ft 305 kts 352°
2026-04-23 18:51 59.72261 5.83752 15158 ft 302 kts 352°
2026-04-23 18:52 59.74345 5.83408 14768 ft 299 kts 352°
2026-04-23 18:52 59.76409 5.83067 14387 ft 296 kts 351°
2026-04-23 18:52 59.78448 5.82728 13995 ft 293 kts 351°
2026-04-23 18:52 59.80464 5.82389 13614 ft 289 kts 352°
2026-04-23 18:53 59.82469 5.82284 13235 ft 287 kts
2026-04-23 18:53 59.84439 5.82940 12858 ft 286 kts
2026-04-23 18:53 59.86377 5.83686 12490 ft 282 kts
2026-04-23 18:53 59.88299 5.84422 12125 ft 280 kts
2026-04-23 18:54 59.90207 5.85149 11757 ft 278 kts
2026-04-23 18:54 59.92085 5.85862 11392 ft 278 kts
2026-04-23 18:54 59.93971 5.86580 11076 ft 274 kts
2026-04-23 18:54 59.95839 5.87291 10710 ft 271 kts
2026-04-23 18:55 59.97691 5.87995 10324 ft 270 kts
2026-04-23 18:55 59.99527 5.88691 9962 ft 266 kts
2026-04-23 18:55 60.01345 5.89383 9536 ft 264 kts
2026-04-23 18:55 60.03145 5.89513 9106 ft 257 kts 346°
2026-04-23 18:56 60.04237 5.88674 8843 ft 255 kts 329°
2026-04-23 18:56 60.05760 5.85122 8310 ft 260 kts 295°
2026-04-23 18:56 60.06133 5.81641 8144 ft 256 kts 285°
2026-04-23 18:56 60.06321 5.78163 7995 ft 251 kts 271°
2026-04-23 18:57 60.05727 5.74889 7879 ft 256 kts 240°
2026-04-23 18:57 60.04298 5.72728 7678 ft 267 kts 204°
2026-04-23 18:57 60.02489 5.71745 7469 ft 270 kts 200°
2026-04-23 18:57 60.00851 5.70107 7235 ft 256 kts 223°
2026-04-23 18:58 59.99567 5.67831 7100 ft 240 kts 229°
2026-04-23 18:58 59.98327 5.65649 6879 ft 237 kts 227°
2026-04-23 18:58 59.97125 5.63419 6678 ft 233 kts 236°
2026-04-23 18:58 59.96222 5.60815 6454 ft 225 kts 250°
2026-04-23 18:59 59.95534 5.58048 6219 ft 218 kts 259°
2026-04-23 18:59 59.95366 5.55034 5999 ft 222 kts 283°
2026-04-23 18:59 59.95845 5.52185 5800 ft 215 kts 307°
2026-04-23 18:59 59.96825 5.50065 5629 ft 201 kts 327°
2026-04-23 19:00 59.98013 5.48958 5525 ft 182 kts 343°
2026-04-23 19:00 59.99192 5.48240 5333 ft 175 kts 343°
2026-04-23 19:00 60.00353 5.47514 5184 ft 174 kts 343°
2026-04-23 19:00 60.01512 5.46785 5037 ft 173 kts 343°
2026-04-23 19:01 60.02624 5.46091 4826 ft 165 kts 343°
2026-04-23 19:01 60.03724 5.45402 4721 ft 166 kts 343°
2026-04-23 19:01 60.04827 5.44707 4570 ft 166 kts 343°
2026-04-23 19:01 60.05933 5.44012 4441 ft 167 kts 343°
2026-04-23 19:02 60.06669 5.43550 4349 ft 167 kts 343°
2026-04-23 19:02 60.08148 5.42572 4150 ft 173 kts 337°
2026-04-23 19:02 60.09205 5.41017 3986 ft 199 kts 315°
2026-04-23 19:02 60.09858 5.38663 3735 ft 199 kts 292°
2026-04-23 19:03 60.10129 5.35869 3426 ft 201 kts 286°
2026-04-23 19:03 60.10383 5.33129 3299 ft 200 kts 287°
2026-04-23 19:03 60.10881 5.30582 3222 ft 194 kts 307°
2026-04-23 19:03 60.11750 5.28626 3128 ft 189 kts 325°
2026-04-23 19:04 60.12874 5.27400 2955 ft 178 kts 343°
2026-04-23 19:04 60.14022 5.26934 2811 ft 159 kts 351°
2026-04-23 19:04 60.15054 5.26588 2665 ft 142 kts 351°
2026-04-23 19:04 60.15998 5.26272 2602 ft 135 kts 352°
2026-04-23 19:05 60.16916 5.25967 2501 ft 132 kts 351°
2026-04-23 19:05 60.17819 5.25666 2354 ft 131 kts 351°
2026-04-23 19:05 60.18716 5.25367 2190 ft 130 kts 351°
2026-04-23 19:05 60.19604 5.25070 2008 ft 129 kts 351°
2026-04-23 19:06 60.20488 5.24771 1829 ft 129 kts 351°
2026-04-23 19:06 60.21372 5.24460 1646 ft 129 kts 350°
2026-04-23 19:06 60.22247 5.24147 1478 ft 130 kts 350°
2026-04-23 19:06 60.23143 5.23877 1268 ft 130 kts 352°
2026-04-23 19:07 60.24031 5.23622 1102 ft 128 kts 349°
2026-04-23 19:07 60.24930 5.23329 932 ft 132 kts 348°
2026-04-23 19:07 60.25831 5.23002 707 ft 131 kts 347°
2026-04-23 19:07 60.26740 5.22686 519 ft 133 kts 348°
2026-04-23 19:08 60.27656 5.22392 321 ft 133 kts 347°
2026-04-23 19:08 60.28576 5.22068 172 ft 133 kts 348°
2026-04-23 19:08 60.29321 5.21817 161 ft 83 kts 350°
2026-04-23 19:08 60.29636 5.21716 165 ft 28 kts 356°
2026-04-23 19:09 60.29712 5.21814 166 ft 12 kts 69°
2026-04-23 19:09 60.29722 5.21934 164 ft 8 kts 85°
2026-04-23 19:09 60.29691 5.22018 162 ft 6 kts 159°
2026-04-23 19:09 60.29650 5.22036 162 ft 6 kts 171°
2026-04-23 19:10 60.29601 5.22051 162 ft 8 kts 171°
2026-04-23 19:10 60.29548 5.22068 163 ft 8 kts 171°
2026-04-23 19:10 60.29451 5.22102 164 ft 21 kts 169°
2026-04-23 19:10 60.29296 5.22153 164 ft 23 kts 172°
2026-04-23 19:11 60.29166 5.22197 162 ft 18 kts 171°
2026-04-23 19:11 60.29040 5.22236 161 ft 18 kts 172°
2026-04-23 19:11 60.28938 5.22276 159 ft 0 kts 156°
2026-04-23 19:11 60.28937 5.22283 159 ft 1 kts 125°
2026-04-23 19:12 60.28934 5.22300 159 ft 5 kts 108°
2026-04-23 19:12 60.28947 5.22377 163 ft 1 kts 58°
2026-04-23 19:12 60.28948 5.22387 163 ft 3 kts 73°
2026-04-23 19:12 60.28948 5.22398 164 ft 0 kts 80°
2026-04-23 19:13 60.28946 5.22432 168 ft 7 kts 98°
2026-04-23 19:13 60.28933 5.22525 170 ft 3 kts 107°
2026-04-23 19:13 60.28930 5.22549 170 ft 0 kts 107°